Flag for Spain Weather past 2 weeks in Madrid, Spain

Now
82 °F

Passing clouds.


Feels Like: 80 °F
Forecast: 62 / 84 °F
Wind: 9 mph from Southwest

Location: Madrid / Cuatro Vientos

Current Time: Aug 21, 2014 at 2:06:24 PM

Latest Report: Aug 21, 2014 at 1:30 PM


Visibility: N/A

Pressure: 30.04 "Hg

Humidity: 20%

Dew point: 37 °F

Location of MadridLocation

Historic Weather in Madrid — Graph

°F

Madrid temperature yesterday

Maximum temperature yesterday: 88 °F (at 3:30 PM)
Minimum temperature yesterday: 61 °F (at 7:30 AM)
Average temperature yesterday: 80 °F

Past Weeks' High & Low Weather Summary

 TemperatureHumidityPressure
High95 °F (Aug 6, 4:30 PM)78% (Aug 19, 7:30 AM)30.18 "Hg (Aug 19, 7:30 AM)
Low59 °F (Aug 14, 7:00 AM)9% (Aug 13, 6:30 PM)29.83 "Hg (Aug 18, 7:00 PM)
Average82 °F28%30.01 "Hg
* Reported Aug 6 1:00 PM — Aug 21 1:00 PM, Madrid, Weather by CustomWeather, © 2014

Note: Actual official high and low records may vary slightly from our data, if they occured in-between our weather recording intervals... More about our weather records

Advertising

Madrid weather history for previous 24 hours

 ConditionsComfort  
Time TempWeatherWind HumidityBarometerVisibility
1:00 PM
Aug 21
82 °FPassing clouds.6 mph23%30.04 "HgN/A
12:30 PM82 °FSunny.5 mph25%30.07 "Hg10 mi
12:00 PM81 °FSunny.2 mph30%30.07 "Hg10 mi
11:30 AM77 °FSunny.2 mph34%30.07 "Hg10 mi
11:00 AM77 °FSunny.No wind36%30.07 "Hg10 mi
10:30 AM75 °FSunny.1 mph39%30.04 "Hg10 mi
10:00 AM73 °FSunny.1 mph44%30.04 "Hg10 mi
9:30 AM72 °FSunny.1 mph47%30.04 "Hg10 mi
9:00 AM68 °FSunny.1 mph53%30.04 "Hg10 mi
8:30 AM66 °FPassing clouds.3 mph56%30.04 "HgN/A
8:00 AM64 °FClear.No wind60%30.04 "Hg10 mi
7:30 AM64 °FClear.No wind60%30.04 "Hg10 mi
7:00 AM64 °FClear.2 mph60%30.04 "Hg10 mi
11:30 PM
Aug 20
73 °FClear.No wind27%30.04 "Hg10 mi
11:00 PM73 °FClear.No wind27%30.04 "Hg10 mi
10:30 PM75 °FClear.2 mph25%30.01 "Hg10 mi
10:00 PM77 °FSunny.2 mph22%30.01 "Hg10 mi
9:30 PM79 °FPassing clouds.6 mph21%30.01 "HgN/A
9:00 PM81 °FPassing clouds.7 mph20%30.01 "HgN/A
8:30 PM82 °FPassing clouds.9 mph17%29.98 "HgN/A
8:00 PM84 °FPassing clouds.7 mph19%29.98 "HgN/A
7:30 PM84 °FPassing clouds.8 mph16%29.98 "HgN/A
7:00 PM88 °FPassing clouds.13 mph19%29.98 "HgN/A
6:30 PM86 °FPassing clouds.9 mph20%29.98 "HgN/A
6:00 PM88 °FPassing clouds.12 mph19%29.98 "HgN/A
5:30 PM88 °FPassing clouds.13 mph18%29.98 "HgN/A
5:00 PM88 °FPassing clouds.9 mph18%29.98 "HgN/A
4:30 PM88 °FPassing clouds.13 mph19%29.98 "HgN/A
4:00 PM88 °FPassing clouds.10 mph18%29.98 "HgN/A
3:30 PM88 °FPassing clouds.12 mph18%30.01 "HgN/A
3:00 PM86 °FPassing clouds.10 mph18%30.01 "HgN/A
2:30 PM86 °FPassing clouds.8 mph19%30.01 "HgN/A
2:00 PM86 °FPassing clouds.8 mph19%30.01 "HgN/A
Weather by CustomWeather, © 2014

See weather overviewHow to use our weather pages